Ingonish Beach, Nova Scotia

3:10 AM AST on December 08, 2016 (GMT -0400)
Ingonish Beach

Weather History for CXIB - October, 2013

Change the Weather History Date:

Sunday, October 13, 2013

  Actual Average Record
Temperature  
Mean Temperature 46 °F -  
Max Temperature 55 °F - - ()
Min Temperature 36 °F - - ()
Degree Days  
Heating Degree Days 19    
Moisture  
Dew Point 32 °F    
Average Humidity 62    
Maximum Humidity 89    
Minimum Humidity 27    
Precipitation  
Precipitation 0.00 in - - ()
Sea Level Pressure  
Sea Level Pressure 30.38 in    
Wind  
Wind Speed 2 mph ()    
Max Wind Speed 5 mph    
Max Gust Speed -    
T = Trace of Precipitation, MM = Missing Value Source: Averaged Metar Reports

Daily Weather History Graph

Daily Weather History Graph

Search for Another Location

Airport or City:

Trip Planner

Search our weather history database for the weather conditions in past years. The results will help you decide how hot, cold, wet, or windy it might be!

Date:

Astronomy

Oct. 13, 2013 Rise Set
Actual Time 7:16 AM ADT 6:18 PM ADT
Civil Twilight 6:46 AM ADT 6:48 PM ADT
Nautical Twilight 6:11 AM ADT 7:23 PM ADT
Astronomical Twilight 5:36 AM ADT 7:58 PM ADT
Moon 3:23 PM ADT (10/13) 1:01 AM ADT (10/13)
Length of Visible Light 12h 02m
Length of Day
11h 01m
Waxing Gibbous, 69% of the Moon is Illuminated
Oct 13
Waxing Gibbous
Oct 18
Full
Oct 26
Last Quarter
Nov 3
New
Nov 10
First Quarter

Hourly Weather History & Observations

Time (ADT) Temp. Windchill Dew Point Humidity Pressure Visibility Wind Dir Wind Speed Gust Speed Precip Events Conditions
12:00 AM 39.7 °F - 31.8 °F 73% 30.42 in - NW 2.3 mph - N/A   Unknown
1:00 AM 37.8 °F - 31.6 °F 79% 30.43 in - West 2.3 mph - N/A   Unknown
2:00 AM 38.1 °F - 31.6 °F 77% 30.43 in - West 2.3 mph - N/A   Unknown
3:00 AM 39 °F - 32 °F 69% 30.42 in - West 2.3 mph - -  
3:00 AM 38.8 °F - 31.6 °F 75% 30.42 in - West 2.3 mph - N/A   Unknown
4:00 AM 39.0 °F - 32.9 °F 79% 30.42 in - West 2.3 mph - N/A   Unknown
5:00 AM 39.0 °F - 31.3 °F 74% 30.42 in - West 2.3 mph - N/A   Unknown
6:00 AM 39.0 °F - 31.6 °F 75% 30.42 in - West 1.2 mph - N/A   Unknown
7:00 AM 38.8 °F - 30.9 °F 73% 30.42 in - West 2.3 mph - N/A   Unknown
8:00 AM 38.5 °F 36.1 °F 31.8 °F 77% 30.42 in - West 3.5 mph - N/A   Unknown
9:00 AM 43 °F - 32 °F 54% 30.42 in - NW 2.3 mph - -  
9:00 AM 43.2 °F - 31.8 °F 64% 30.42 in - NW 2.3 mph - N/A   Unknown
10:00 AM 46.8 °F - 31.6 °F 56% 30.41 in - North 2.3 mph - N/A   Unknown
11:00 AM 50.2 °F - 30.7 °F 47% 30.40 in - North 3.5 mph - N/A   Unknown
12:00 PM 52.0 °F - 31.5 °F 46% 30.39 in - NNW 3.5 mph - N/A   Unknown
1:00 PM 53.8 °F - 28.9 °F 39% 30.36 in - NNW 3.5 mph - N/A   Unknown
2:00 PM 54.9 °F - 29.5 °F 38% 30.35 in - NNW 3.5 mph - N/A   Unknown
3:00 PM 54 °F - 30 °F 27% 30.35 in - NW 3.5 mph - -  
3:00 PM 54.5 °F - 29.7 °F 39% 30.35 in - NW 3.5 mph - N/A   Unknown
4:00 PM 52.5 °F - 31.3 °F 44% 30.35 in - West 4.6 mph - N/A   Unknown
5:00 PM 50.0 °F - 33.4 °F 53% 30.35 in - West 3.5 mph - N/A   Unknown
6:00 PM 45.9 °F - 34.2 °F 64% 30.35 in - SSW 2.3 mph - N/A   Unknown
7:00 PM 42.3 °F - 33.6 °F 71% 30.34 in - NNW 2.3 mph - N/A   Unknown
8:00 PM 44.6 °F 43.1 °F 33.1 °F 64% 30.32 in - SE 3.5 mph - N/A   Unknown
9:00 PM 44 °F - 34 °F 57% 30.32 in - SSW 3.5 mph - -  
9:00 PM 44.1 °F 42.5 °F 33.6 °F 67% 30.32 in - SSW 3.5 mph - N/A   Unknown
10:00 PM 40.3 °F - 33.6 °F 77% 30.34 in - South 2.3 mph - N/A   Unknown
11:00 PM 36.1 °F - 33.3 °F 89% 30.34 in - West 1.2 mph - N/A   Unknown